Location: ??????
(55.7522°N, 37.6156°E)
Time: 17:46:35
(UTC+00:00)

Cosmos 1606 - Pass Details

Date: 14 June 2025
Orbit: 377 x 386 km, 82.5° (Epoch: 12 July)

Event Time Altitude Azimuth Distance (km) Brightness Sun altitude
Rises 21:41:40 0° 349° (NNW) 2,267 7.7 -10.9°
Reaches altitude 10° 21:43:40 10° 351° (N) 1,407 6.4 -10.9°
Maximum altitude 21:46:43 74° 77° (ENE) 400 2.1 -10.9°
Enters shadow 21:48:58 16° 162° (SSE) 1,080 3.8 -10.8°
